Location: Newark
(52.3500°N, 175.9667°E)
Time: 22:00:56
(UTC+00:00)

Transit 4A - Pass Details

Date: 23 April 2021
Orbit: 871 x 974 km, 66.8° (Epoch: 16 May)

Event Time Altitude Azimuth Distance (km) Brightness Sun altitude
Rises 17:03:26 0° 314° (NW) 3,553 10.7 -0.4°
Reaches altitude 10° 17:06:22 10° 326° (NNW) 2,592 10.1 0.0°
Maximum altitude 17:11:29 28° 25° (NNE) 1,606 9.8 0.8°
Drops below altitude 10° 17:16:30 10° 84° (E) 2,538 12.1 1.5°
Sets 17:19:19 0° 96° (E) 3,466 12.3 1.9°
